User: anonymous   Login
Location: *
(90.0000°N, 180.0000°W)
Time: 01:31:33
(UTC+02:00)
Language:

Cosmos 1825 - Orbit

View from above orbital plane
View from above orbital plane
View from above satellite
View from above satellite

Ground track
Ground track

The orbit data is extracted from the following two-line orbital elements,

1 17566U 87024A   17112.90046756 +.00001744 +00000-0 +82830-4 0  9996
2 17566 082.5056 344.9718 0005329 060.1537 300.0226 15.18587381645162
Epoch (UTC): 22 April 2017 21:36:40
Eccentricity: 0.0005329
inclination: 82.5056°
perigee height: 506 km
apogee height: 514 km
right ascension of ascending node: 344.9718°
argument of perigee: 60.1537°
revolutions per day: 15.18587381
mean anomaly at epoch: 300.0226°
orbit number at epoch: 64516

The dashed part of the orbit path shows where the satellite is in the earth's shadow,  

DLR